Spokane Fairchild, WA

4:38 PM PDT on August 19, 2017 (GMT -0700)
Fairchild Air Force Base

Weather History for KSKA - January, 2013

Change the Weather History Date:

Saturday, January 26, 2013

  Actual Average Record
Temperature  
Mean Temperature 32 °F -  
Max Temperature 35 °F 34 °F 55 °F (2003)
Min Temperature 28 °F 24 °F 5 °F (2009)
Degree Days  
Heating Degree Days 34    
Moisture  
Dew Point 32 °F    
Average Humidity 100    
Maximum Humidity 100    
Minimum Humidity 99    
Precipitation  
Precipitation 0.00 in - - ()
Snow  
Snow 0.00 in - - ()
Snow Depth 2.00 in    
Sea Level Pressure  
Sea Level Pressure 29.89 in    
Wind  
Wind Speed 8 mph (SSW)    
Max Wind Speed 17 mph    
Max Gust Speed 22 mph    
Visibility 5 miles    
Events Fog , Rain    
Averages and records for this station are not official NWS values.
T = Trace of Precipitation, MM = Missing Value Source: NWS Daily Summary

Daily Weather History Graph

Daily Weather History Graph

Search for Another Location

Airport or City:

Trip Planner

Search our weather history database for the weather conditions in past years. The results will help you decide how hot, cold, wet, or windy it might be!

Date:

Astronomy

Jan. 26, 2013 Rise Set
Actual Time 7:24 AM PST 4:43 PM PST
Civil Twilight 6:50 AM PST 5:16 PM PST
Nautical Twilight 6:13 AM PST 5:54 PM PST
Astronomical Twilight 5:36 AM PST 6:30 PM PST
Moon 4:46 PM PST (1/26) 6:42 AM PST (1/26)
Length of Visible Light 10h 26m
Length of Day
9h 19m
Full, 100% of the Moon is Illuminated
Jan 26
Full
Jan 26
Full
Feb 3
Last Quarter
Feb 9
New
Feb 17
First Quarter

Hourly Weather History & Observations

Time (PST) Temp. Windchill Dew Point Humidity Pressure Visibility Wind Dir Wind Speed Gust Speed Precip Events Conditions
12:03 AM 33.8 °F 27.7 °F 33.8 °F 100% 29.88 in 0.2 mi South 6.9 mph - N/A Fog Fog
12:24 AM 35.6 °F - 35.6 °F 100% 29.86 in 0.2 mi SSE 2.3 mph - N/A Fog Fog
12:39 AM 35.6 °F 31.7 °F 35.6 °F 100% 29.85 in 0.2 mi South 4.6 mph - N/A Fog Fog
12:58 AM 34.7 °F 27.5 °F 34.7 °F 100% 29.92 in 0.2 mi South 9.2 mph - 0.00 in Fog Fog
1:25 AM 35.6 °F 28.0 °F 35.6 °F 100% 29.87 in 0.2 mi South 10.4 mph - N/A Fog , Rain Light Rain
1:55 AM 32.0 °F 20.8 °F 32.0 °F 100% 29.88 in 0.5 mi SSW 17.3 mph 21.9 mph N/A Fog , Rain Light Rain
1:58 AM 33.4 °F 23.1 °F 33.4 °F 100% 29.94 in 0.5 mi SSW 16.1 mph 21.9 mph 0.00 in Fog , Rain Light Rain
2:13 AM 32.0 °F 22.1 °F 32.0 °F 100% 29.87 in 0.5 mi SSW 13.8 mph - N/A Fog , Rain Light Rain
2:33 AM 32.0 °F 23.0 °F 32.0 °F 100% 29.84 in 0.8 mi SSE 11.5 mph 17.3 mph N/A Rain Light Rain
2:37 AM 32.0 °F 23.6 °F 32.0 °F 100% 29.84 in 0.8 mi South 10.4 mph - N/A   Mist
2:42 AM 32.0 °F 23.6 °F 32.0 °F 100% 29.83 in 1.2 mi South 10.4 mph - N/A   Overcast
2:47 AM 32.0 °F 23.0 °F 32.0 °F 100% 29.83 in 2.0 mi SSE 11.5 mph - N/A   Overcast
2:52 AM 32.0 °F 24.2 °F 32.0 °F 100% 29.84 in 5.0 mi SSE 9.2 mph - N/A   Overcast
2:58 AM 32.4 °F 25.3 °F 32.4 °F 100% 29.91 in 8.0 mi South 8.1 mph - 0.00 in   Overcast
3:03 AM 32.0 °F 24.2 °F 32.0 °F 100% 29.84 in 8.0 mi WSW 9.2 mph - N/A   Overcast
3:08 AM 32.0 °F 25.6 °F 32.0 °F 100% 29.84 in 3.0 mi West 6.9 mph - N/A   Overcast
3:13 AM 32.0 °F 24.8 °F 32.0 °F 100% 29.84 in 2.0 mi West 8.1 mph - N/A   Overcast
3:18 AM 32.0 °F 24.8 °F 32.0 °F 100% 29.85 in 1.8 mi WSW 8.1 mph - N/A   Overcast
3:20 AM 32.0 °F 24.2 °F 32.0 °F 100% 29.85 in 1.5 mi WSW 9.2 mph - N/A   Overcast
3:25 AM 32.0 °F 24.2 °F 32.0 °F 100% 29.85 in 1.0 mi WSW 9.2 mph - N/A Rain Light Rain
3:30 AM 32.0 °F 23.0 °F 32.0 °F 100% 29.86 in 0.8 mi SW 11.5 mph - N/A   Mist
3:35 AM 32.0 °F 22.5 °F 32.0 °F 100% 29.86 in 1.0 mi SW 12.7 mph - N/A   Mist
3:39 AM 32.0 °F 23.0 °F 32.0 °F 100% 29.87 in 1.0 mi SW 11.5 mph - N/A   Mist
3:43 AM 32.0 °F 23.6 °F 32.0 °F 100% 29.86 in 1.0 mi SW 10.4 mph - N/A Rain Light Freezing Rain
3:55 AM 32.0 °F 24.2 °F 32.0 °F 100% 29.92 in 0.8 mi SW 9.2 mph - 0.00 in   Mist
4:55 AM 31.5 °F 23.5 °F 31.5 °F 100% 29.92 in 0.5 mi SW 9.2 mph - N/A Fog Light Freezing Fog
5:30 AM 32.0 °F 23.6 °F 32.0 °F 100% 29.92 in 0.8 mi SW 10.4 mph - N/A   Mist
5:55 AM 31.1 °F 23.7 °F 31.1 °F 100% 29.92 in 0.5 mi SSW 8.1 mph - N/A Fog Light Freezing Fog
6:27 AM 32.0 °F 23.6 °F 32.0 °F 100% 29.93 in 0.8 mi SSW 10.4 mph - N/A   Mist
6:49 AM 32.0 °F 24.2 °F 32.0 °F 100% 29.93 in 0.5 mi SSW 9.2 mph - N/A Fog Light Freezing Fog
6:55 AM 30.7 °F 24.1 °F 30.7 °F 100% 29.92 in 0.5 mi SW 6.9 mph - N/A Fog Light Freezing Fog
7:12 AM 32.0 °F 24.8 °F 32.0 °F 100% 29.86 in 0.5 mi SSW 8.1 mph - N/A Fog Light Freezing Fog
7:17 AM 32.0 °F 23.6 °F 32.0 °F 100% 29.86 in 0.5 mi SSW 10.4 mph - N/A Fog Light Freezing Fog
7:22 AM 32.0 °F 24.2 °F 32.0 °F 100% 29.87 in 1.0 mi SSW 9.2 mph - N/A   Mist
7:27 AM 32.0 °F 24.2 °F 32.0 °F 100% 29.87 in 0.8 mi SSW 9.2 mph - N/A   Mist
7:32 AM 32.0 °F 23.6 °F 32.0 °F 100% 29.87 in 0.5 mi SSW 10.4 mph - N/A Fog Light Freezing Fog
7:47 AM 32.0 °F 23.0 °F 32.0 °F 100% 29.87 in 0.2 mi SSW 11.5 mph - N/A Fog Light Freezing Fog
7:58 AM 32.0 °F 23.6 °F 32.0 °F 100% 29.94 in 0.5 mi SSW 10.4 mph - N/A Fog Light Freezing Fog
8:18 AM 32.0 °F 25.6 °F 32.0 °F 100% 29.87 in 0.8 mi SSW 6.9 mph - N/A   Mist
8:23 AM 32.0 °F 24.2 °F 32.0 °F 100% 29.87 in 0.8 mi SSW 9.2 mph - N/A   Mist
8:33 AM 32.0 °F 24.8 °F 32.0 °F 100% 29.87 in 1.0 mi SW 8.1 mph - N/A   Light Freezing Drizzle
8:38 AM 32.0 °F 24.8 °F 32.0 °F 100% 29.86 in 1.2 mi SW 8.1 mph - N/A   Overcast
8:48 AM 32.0 °F 26.4 °F 32.0 °F 100% 29.87 in 1.5 mi South 5.8 mph - N/A   Overcast
8:58 AM 30.4 °F 23.6 °F 30.4 °F 100% 29.94 in 1.0 mi South 6.9 mph - N/A   Mist
9:03 AM 30.2 °F 21.9 °F 30.2 °F 100% 29.87 in 0.8 mi South 9.2 mph - N/A   Mist
9:13 AM 30.2 °F 23.4 °F 30.2 °F 100% 29.88 in 1.0 mi South 6.9 mph - N/A   Mist
9:18 AM 30.2 °F 24.3 °F 30.2 °F 100% 29.88 in 1.5 mi South 5.8 mph - N/A   Overcast
9:23 AM 30.2 °F 22.6 °F 30.2 °F 100% 29.89 in 1.5 mi South 8.1 mph - N/A   Overcast
9:28 AM 30.2 °F 21.3 °F 30.2 °F 100% 29.89 in 0.8 mi South 10.4 mph - N/A   Mist
9:33 AM 30.2 °F 21.3 °F 30.2 °F 100% 29.89 in 1.0 mi South 10.4 mph - N/A   Mist
9:38 AM 30.2 °F 21.3 °F 30.2 °F 100% 29.90 in 4.0 mi South 10.4 mph - N/A   Overcast
9:58 AM 29.3 °F 23.2 °F 29.3 °F 100% 29.98 in 3.0 mi SSW 5.8 mph - N/A   Overcast
10:03 AM 30.2 °F 24.3 °F 30.2 °F 100% 29.90 in 2.0 mi South 5.8 mph - N/A   Overcast
10:08 AM 30.2 °F 22.6 °F 30.2 °F 100% 29.90 in 1.5 mi South 8.1 mph - N/A   Overcast
10:10 AM 30.2 °F 23.4 °F 30.2 °F 100% 29.90 in 1.5 mi SSW 6.9 mph - N/A   Overcast
10:20 AM 30.2 °F 21.9 °F 30.2 °F 100% 29.90 in 2.0 mi South 9.2 mph - N/A   Overcast
10:25 AM 30.2 °F 23.4 °F 30.2 °F 100% 29.89 in 4.0 mi SSW 6.9 mph - N/A   Overcast
10:58 AM 30.6 °F 23.8 °F 30.6 °F 100% 29.96 in 6.0 mi SSW 6.9 mph - N/A   Overcast
11:38 AM 32.0 °F 23.6 °F 32.0 °F 100% 29.88 in 10.0 mi SSW 10.4 mph - N/A   Overcast
11:55 AM 32.0 °F 24.8 °F 32.0 °F 100% 29.88 in 10.0 mi SSW 8.1 mph - N/A   Overcast
11:58 AM 30.9 °F 23.5 °F 30.9 °F 100% 29.95 in 10.0 mi SSW 8.1 mph - 0.00 in   Overcast
11:59 AM 32.0 °F 24.2 °F 32.0 °F 100% 29.88 in 10.0 mi SSW 9.2 mph - N/A   Overcast
12:02 PM 32.0 °F 24.2 °F 32.0 °F 100% 29.88 in 10.0 mi SSW 9.2 mph - N/A   Overcast
12:12 PM 32.0 °F 24.2 °F 32.0 °F 100% 29.88 in 10.0 mi SSW 9.2 mph - N/A   Overcast
12:16 PM 32.0 °F 24.8 °F 32.0 °F 100% 29.87 in 10.0 mi SW 8.1 mph - N/A   Overcast
12:34 PM 32.0 °F 26.4 °F 32.0 °F 100% 29.87 in 7.0 mi SW 5.8 mph - N/A   Overcast
12:40 PM 32.0 °F 26.4 °F 32.0 °F 100% 29.87 in 7.0 mi SSW 5.8 mph - N/A   Overcast
12:50 PM 32.0 °F 26.4 °F 32.0 °F 100% 29.87 in 10.0 mi SSW 5.8 mph - N/A   Overcast
12:58 PM 31.3 °F 23.9 °F 31.3 °F 100% 29.94 in 10.0 mi SSW 8.1 mph - 0.00 in   Overcast
1:08 PM 32.0 °F 25.6 °F 32.0 °F 100% 29.86 in 10.0 mi SSW 6.9 mph - N/A   Overcast
1:13 PM 32.0 °F 26.4 °F 32.0 °F 100% 29.86 in 10.0 mi SSW 5.8 mph - N/A   Overcast
1:28 PM 32.0 °F 26.4 °F 32.0 °F 100% 29.86 in 10.0 mi SSW 5.8 mph - N/A   Overcast
1:53 PM 32.0 °F 26.4 °F 32.0 °F 100% 29.86 in 10.0 mi SW 5.8 mph - N/A   Overcast
1:58 PM 31.6 °F 27.0 °F 31.6 °F 100% 29.93 in 10.0 mi SW 4.6 mph - 0.00 in   Overcast
2:08 PM 32.0 °F 24.8 °F 32.0 °F 100% 29.86 in 10.0 mi South 8.1 mph - N/A   Overcast
2:16 PM 32.0 °F 24.2 °F 32.0 °F 100% 29.86 in 10.0 mi SSW 9.2 mph - N/A   Overcast
2:36 PM 32.0 °F 26.4 °F 32.0 °F 100% 29.86 in 10.0 mi SW 5.8 mph - N/A   Overcast
2:46 PM 32.0 °F 27.5 °F 32.0 °F 100% 29.86 in 10.0 mi SW 4.6 mph - N/A   Overcast
2:58 PM 31.3 °F 25.6 °F 31.3 °F 100% 29.93 in 10.0 mi SSW 5.8 mph - 0.00 in   Overcast
3:12 PM 32.0 °F 24.8 °F 32.0 °F 100% 29.87 in 10.0 mi South 8.1 mph - N/A   Overcast
3:27 PM 32.0 °F 25.6 °F 32.0 °F 100% 29.87 in 10.0 mi South 6.9 mph - N/A   Overcast
3:28 PM 32.0 °F 25.6 °F 32.0 °F 100% 29.87 in 10.0 mi South 6.9 mph - N/A   Overcast
3:58 PM 31.3 °F 26.6 °F 31.3 °F 100% 29.93 in 10.0 mi South 4.6 mph - N/A   Overcast
4:33 PM 32.0 °F 28.7 °F 32.0 °F 100% 29.86 in 10.0 mi South 3.5 mph - N/A   Overcast
4:58 PM 31.1 °F 23.1 °F 31.1 °F 100% 29.94 in 10.0 mi South 9.2 mph - N/A   Overcast
5:14 PM 32.0 °F 27.5 °F 32.0 °F 100% 29.87 in 10.0 mi SSW 4.6 mph - N/A   Overcast
5:28 PM 32.0 °F 25.6 °F 32.0 °F 100% 29.87 in 10.0 mi SSW 6.9 mph - N/A   Overcast
5:58 PM 32.0 °F 26.4 °F 32.0 °F 100% 29.94 in 10.0 mi SSW 5.8 mph - 0.00 in   Overcast
6:08 PM 32.0 °F 27.5 °F 32.0 °F 100% 29.88 in 10.0 mi SSW 4.6 mph - N/A   Overcast
6:30 PM 32.0 °F 27.5 °F 32.0 °F 100% 29.88 in 10.0 mi SSW 4.6 mph - N/A   Overcast
6:44 PM 32.0 °F 26.4 °F 32.0 °F 100% 29.88 in 10.0 mi South 5.8 mph - N/A   Overcast
6:54 PM 32.0 °F 26.4 °F 32.0 °F 100% 29.88 in 10.0 mi SW 5.8 mph - N/A   Overcast
6:58 PM 32.0 °F 26.4 °F 32.0 °F 100% 29.95 in 10.0 mi SW 5.8 mph - 0.00 in   Overcast
7:11 PM 32.0 °F 27.5 °F 32.0 °F 100% 29.88 in 10.0 mi SW 4.6 mph - N/A   Overcast
7:15 PM 32.0 °F 26.4 °F 32.0 °F 100% 29.88 in 10.0 mi SW 5.8 mph - N/A   Overcast
7:23 PM 32.0 °F 26.4 °F 32.0 °F 100% 29.88 in 10.0 mi SSW 5.8 mph - N/A   Overcast
7:38 PM 32.0 °F 24.2 °F 32.0 °F 100% 29.88 in 10.0 mi SW 9.2 mph - N/A   Overcast
7:58 PM 30.4 °F 22.2 °F 30.2 °F 99% 29.95 in 9.0 mi SSW 9.2 mph - 0.00 in   Overcast
7:59 PM 30.2 °F 21.9 °F 30.2 °F 100% 29.88 in 8.0 mi SSW 9.2 mph - N/A   Overcast
8:09 PM 30.2 °F 23.4 °F 30.2 °F 100% 29.88 in 4.0 mi SSW 6.9 mph - N/A   Overcast
8:19 PM 30.2 °F 24.3 °F 30.2 °F 100% 29.88 in 6.0 mi SSW 5.8 mph - N/A   Overcast
8:29 PM 30.2 °F 24.3 °F 30.2 °F 100% 29.89 in 7.0 mi SW 5.8 mph - N/A   Overcast
8:30 PM 30.2 °F 23.4 °F 30.2 °F 100% 29.96 in 7.0 mi SW 6.9 mph - N/A   Overcast
8:55 PM 29.8 °F 22.2 °F 29.8 °F 100% 29.95 in 6.0 mi SW 8.1 mph - N/A   Overcast
9:56 PM 28.9 °F 21.1 °F 28.9 °F 100% 29.98 in 5.0 mi WSW 8.1 mph - N/A   Overcast
10:55 PM 28.8 °F 21.7 °F 28.8 °F 100% 29.99 in 4.0 mi SSW 6.9 mph - N/A   Overcast
11:55 PM 28.6 °F 23.5 °F 28.6 °F 100% 29.99 in 7.0 mi South 4.6 mph - N/A   Overcast